Home   Weather   Mabalacat   Past weeks

Flag for Philippines Past Weather in Mabalacat, Philippines — Yesterday and Last 2 Weeks

Now
81 °F

Partly cloudy.


Feels Like: 85 °F
Forecast: 78 / 94 °F
Wind: 2 mph from West

Location: Clarkfield Pampanga International Airport

Current Time: Apr 25, 2017 at 4:58:16 am

Latest Report: Apr 25, 2017 at 4:00 am


Visibility: N/A

Pressure: 29.86 "Hg

Humidity: 74%

Dew Point: 72 °F

Location of MabalacatLocation

Past Weather in Mabalacat — Graph

°F

Mabalacat Temperature Yesterday

Maximum temperature yesterday: 95 °F (at 1:00 pm)
Minimum temperature yesterday: 81 °F (at 1:00 am)
Average temperature yesterday: 85 °F

High & Low Weather Summary for the Past Weeks

 TemperatureHumidityPressure
High99 °F (Apr 13, 4:00 pm)94% (Apr 18, 5:00 am)30.01 "Hg (Apr 18, 5:00 am)
Low77 °F (Apr 13, 5:00 am)28% (Apr 13, 3:00 pm)29.77 "Hg (Apr 10, 3:00 pm)
Average86 °F66%29.87 "Hg
* Reported Apr 10 3:00 am — Apr 25 3:00 am, Mabalacat, Weather by CustomWeather, © 2017

Note: Actual official high and low records may vary slightly from our data, if they occured in-between our weather recording intervals... More about our weather records

Advertising

Mabalacat Weather History for the Previous 24 Hours

Scroll right to see more
 ConditionsComfort  
Time TempWeatherWind HumidityBarometerVisibility
3:00 am
Tue, Apr 25
81 °FPartly cloudy.2 mph74%29.86 "HgN/A
2:00 am81 °FPartly cloudy.2 mph74%29.86 "HgN/A
1:00 am81 °FPassing clouds.2 mph70%29.89 "HgN/A
12:00 am81 °FPassing clouds.2 mph74%29.92 "HgN/A
11:00 pm
Mon, Apr 24
81 °FPassing clouds.5 mph74%29.92 "HgN/A
10:00 pm81 °FPassing clouds.7 mph74%29.95 "HgN/A
9:00 pm82 °FPassing clouds.5 mph70%29.92 "HgN/A
8:00 pm84 °FPassing clouds.8 mph70%29.86 "HgN/A
7:00 pm88 °FPartly cloudy.6 mph59%29.86 "HgN/A
6:00 pm90 °FBroken clouds.5 mph55%29.83 "Hg6 mi
5:00 pm90 °FBroken clouds.2 mph59%29.83 "Hg6 mi
4:00 pm88 °FBroken clouds.8 mph62%29.83 "Hg6 mi
3:00 pm90 °FThunderstorms. Broken clouds.9 mph59%29.83 "Hg6 mi
2:00 pm91 °FBroken clouds.8 mph56%29.83 "Hg6 mi
1:00 pm95 °FBroken clouds.6 mph47%29.86 "HgN/A
12:00 pm93 °FBroken clouds.9 mph49%29.89 "HgN/A
11:00 am91 °FBroken clouds.2 mph56%29.92 "Hg6 mi
10:00 am90 °FScattered clouds.6 mph63%29.92 "Hg6 mi
9:00 am84 °FBroken clouds.7 mph74%29.92 "HgN/A
8:00 am82 °FPartly sunny.3 mph74%29.92 "HgN/A
7:00 am81 °FPartly sunny.3 mph84%29.92 "HgN/A
6:00 am81 °FBroken clouds.3 mph79%29.89 "HgN/A
5:00 am81 °FPartly cloudy.2 mph79%29.89 "HgN/A
4:00 am81 °FPartly cloudy.5 mph79%29.86 "HgN/A
Weather by CustomWeather, © 2017

See weather overviewHow to use our weather pages